Location: Cheyres
(46.8153°N, 6.7877°E)
Time: 14:05:38
(UTC+00:00)

FENGYUN 1C DEB - Pass Details

Date: 06 December 2021
Orbit: 843 x 915 km, 99.0° (Epoch: 18 January)

Event Time Altitude Azimuth Distance (km) Brightness Sun altitude
Exits shadow 20:03:35 12° 323° (NW) 2,361 ? -43.2°
Drops below altitude 10° 20:04:00 10° 325° (NW) 2,494 ? -43.3°
Sets 20:06:40 0° 337° (NNW) 3,427 ? -43.8°
